When you browse on this site, cookies collect data to enhance your experience and personalize the content and advertising you see.
Visit our Privacy Policy to learn more. By continuing to use the site, you agree to this use of cookies and data.
  • In Sweden
  • List of Countries
  • For 7 days
  • Water Temperature
  • Weather Map
  • Weather Widgets
  • user-avatar
    Login

    Hourly Weather Spring

    Today, 6 June, Saturday

    Time Temperature Precipitation Wind Pressure Humidity
    00:00 +29°C° 0 mm 1 mps 757 mmHg 72%
    01:00 +29°C° 0 mm 1 mps 756 mmHg 73%
    02:00 +29°C° 0 mm 1 mps 756 mmHg 74%
    03:00 +28°C° 0 mm 1 mps 755 mmHg 75%
    04:00 +28°C° 0 mm 2 mps 755 mmHg 76%
    05:00 +28°C° 0 mm 2 mps 756 mmHg 76%
    06:00 +28°C° 0 mm 2 mps 756 mmHg 77%
    07:00 +29°C° 0 mm 2 mps 756 mmHg 70%
    08:00 +31°C° 0 mm 2 mps 756 mmHg 64%
    09:00 +34°C° 0 mm 3 mps 756 mmHg 57%
    10:00 +35°C° 0 mm 3 mps 756 mmHg 52%
    11:00 +36°C° 0 mm 3 mps 756 mmHg 47%
    12:00 +38°C° 0 mm 3 mps 755 mmHg 41%
    13:00 +38°C° 0 mm 3 mps 755 mmHg 41%
    14:00 +38°C° 0 mm 3 mps 754 mmHg 41%
    15:00 +38°C° 0 mm 3 mps 753 mmHg 40%
    16:00 +37°C° 0 mm 3 mps 753 mmHg 42%
    17:00 +37°C° 0 mm 3 mps 753 mmHg 43%
    18:00 +37°C° 0 mm 4 mps 752 mmHg 44%
    19:00 +35°C° 0.1 mm 4 mps 753 mmHg 49%
    20:00 +34°C° 0.1 mm 4 mps 753 mmHg 54%
    21:00 +32°C° 0.1 mm 4 mps 753 mmHg 59%
    22:00 +30°C° 0 mm 3 mps 753 mmHg 61%
    23:00 +30°C° 0 mm 3 mps 753 mmHg 64%

    Tomorrow, 7 June, Sunday

    Time Temperature Precipitation Wind Pressure Humidity
    00:00 +29°C° 0 mm 3 mps 753 mmHg 67%
    01:00 +29°C° 0 mm 3 mps 753 mmHg 69%
    02:00 +28°C° 0 mm 3 mps 752 mmHg 70%
    03:00 +28°C° 0 mm 2 mps 752 mmHg 72%
    04:00 +27°C° 0 mm 2 mps 752 mmHg 74%
    05:00 +27°C° 0 mm 3 mps 752 mmHg 75%
    06:00 +27°C° 0 mm 3 mps 752 mmHg 76%
    07:00 +28°C° 0 mm 3 mps 752 mmHg 70%
    08:00 +30°C° 0 mm 4 mps 752 mmHg 64%
    09:00 +32°C° 0 mm 4 mps 752 mmHg 58%
    10:00 +34°C° 0 mm 4 mps 752 mmHg 53%
    11:00 +35°C° 0 mm 4 mps 752 mmHg 49%
    12:00 +36°C° 0 mm 4 mps 752 mmHg 44%
    13:00 +36°C° 0.2 mm 5 mps 751 mmHg 46%
    14:00 +36°C° 0.2 mm 5 mps 751 mmHg 48%
    15:00 +36°C° 0.2 mm 5 mps 750 mmHg 49%
    16:00 +35°C° 0.2 mm 5 mps 750 mmHg 53%
    17:00 +34°C° 0.2 mm 5 mps 750 mmHg 56%
    18:00 +33°C° 0.2 mm 5 mps 750 mmHg 59%
    19:00 +33°C° 0 mm 4 mps 750 mmHg 62%
    20:00 +32°C° 0 mm 4 mps 750 mmHg 65%
    21:00 +30°C° 0 mm 3 mps 750 mmHg 67%
    22:00 +30°C° 0 mm 3 mps 750 mmHg 69%
    23:00 +29°C° 0 mm 3 mps 750 mmHg 70%

    Day after tomorrow, 8 June, Monday

    Time Temperature Precipitation Wind Pressure Humidity
    00:00 +29°C° 0 mm 3 mps 749 mmHg 72%
    01:00 +29°C° 0 mm 3 mps 749 mmHg 73%
    02:00 +28°C° 0 mm 3 mps 749 mmHg 75%
    03:00 +28°C° 0 mm 3 mps 749 mmHg 76%
    04:00 +28°C° 0 mm 3 mps 749 mmHg 76%
    05:00 +28°C° 0 mm 2 mps 749 mmHg 77%
    06:00 +28°C° 0 mm 2 mps 749 mmHg 77%
    07:00 +28°C° 0 mm 2 mps 749 mmHg 75%
    08:00 +28°C° 0 mm 3 mps 750 mmHg 74%
    09:00 +29°C° 0 mm 3 mps 750 mmHg 73%
    10:00 +30°C° 0 mm 3 mps 750 mmHg 67%
    11:00 +33°C° 0 mm 4 mps 750 mmHg 62%
    12:00 +34°C° 0 mm 4 mps 750 mmHg 57%
    13:00 +35°C° 0.2 mm 4 mps 750 mmHg 54%
    14:00 +36°C° 0.2 mm 5 mps 749 mmHg 51%
    15:00 +37°C° 0.2 mm 5 mps 749 mmHg 49%
    16:00 +37°C° 0.1 mm 4 mps 749 mmHg 50%
    17:00 +36°C° 0.1 mm 3 mps 749 mmHg 51%
    18:00 +36°C° 0.1 mm 3 mps 749 mmHg 52%
    19:00 +35°C° 0.1 mm 3 mps 749 mmHg 56%
    20:00 +34°C° 0.1 mm 3 mps 750 mmHg 59%
    21:00 +33°C° 0.1 mm 3 mps 750 mmHg 62%
    22:00 +33°C° 0 mm 4 mps 750 mmHg 65%
    23:00 +32°C° 0 mm 4 mps 751 mmHg 68%

    9 June, Tuesday

    Time Temperature Precipitation Wind Pressure Humidity
    00:00 +30°C° 0 mm 5 mps 751 mmHg 71%
    01:00 +30°C° 0 mm 4 mps 751 mmHg 73%
    02:00 +30°C° 0 mm 4 mps 751 mmHg 75%
    03:00 +29°C° 0 mm 4 mps 751 mmHg 77%
    04:00 +29°C° 0 mm 4 mps 751 mmHg 78%
    05:00 +29°C° 0 mm 4 mps 752 mmHg 78%
    06:00 +29°C° 0 mm 4 mps 752 mmHg 79%
    07:00 +30°C° 0 mm 4 mps 753 mmHg 74%
    08:00 +33°C° 0 mm 4 mps 753 mmHg 68%
    09:00 +34°C° 0 mm 4 mps 753 mmHg 63%
    10:00 +35°C° 0 mm 4 mps 754 mmHg 58%
    11:00 +37°C° 0 mm 4 mps 754 mmHg 52%
    12:00 +38°C° 0 mm 4 mps 754 mmHg 46%
    13:00 +40°C° 0 mm 4 mps 754 mmHg 45%
    14:00 +40°C° 0 mm 4 mps 753 mmHg 44%
    15:00 +41°C° 0 mm 4 mps 753 mmHg 43%
    16:00 +40°C° 0 mm 4 mps 753 mmHg 48%
    17:00 +38°C° 0 mm 4 mps 753 mmHg 52%
    18:00 +37°C° 0 mm 4 mps 753 mmHg 56%
    19:00 +36°C° 0 mm 4 mps 753 mmHg 60%
    20:00 +34°C° 0 mm 4 mps 754 mmHg 65%
    21:00 +33°C° 0 mm 4 mps 755 mmHg 69%
    22:00 +31°C° 0.3 mm 3 mps 755 mmHg 71%
    23:00 +31°C° 0.3 mm 2 mps 756 mmHg 73%

    10 June, Wednesday

    Time Temperature Precipitation Wind Pressure Humidity
    00:00 +30°C° 0.3 mm 1 mps 756 mmHg 75%
    01:00 +30°C° 0.3 mm 1 mps 757 mmHg 76%
    02:00 +30°C° 0.3 mm 1 mps 757 mmHg 77%
    03:00 +30°C° 0.3 mm 1 mps 757 mmHg 78%
    04:00 +29°C° 0.4 mm 1 mps 758 mmHg 79%
    05:00 +29°C° 0.4 mm 1 mps 758 mmHg 80%
    06:00 +29°C° 0.4 mm 1 mps 758 mmHg 80%
    07:00 +30°C° 0.4 mm 2 mps 759 mmHg 71%
    08:00 +31°C° 0.4 mm 3 mps 759 mmHg 62%
    09:00 +33°C° 0.4 mm 4 mps 759 mmHg 53%
    10:00 +35°C° 0 mm 4 mps 759 mmHg 48%
    11:00 +36°C° 0 mm 4 mps 759 mmHg 44%
    12:00 +37°C° 0 mm 3 mps 760 mmHg 39%
    13:00 +38°C° 0 mm 4 mps 759 mmHg 35%
    14:00 +38°C° 0 mm 4 mps 759 mmHg 30%
    15:00 +40°C° 0 mm 4 mps 758 mmHg 26%
    16:00 +38°C° 0 mm 4 mps 758 mmHg 27%
    17:00 +37°C° 0 mm 4 mps 758 mmHg 29%
    18:00 +37°C° 0 mm 3 mps 759 mmHg 30%
    19:00 +35°C° 0 mm 4 mps 759 mmHg 32%
    20:00 +34°C° 0 mm 4 mps 759 mmHg 34%
    21:00 +32°C° 0 mm 4 mps 760 mmHg 35%
    22:00 +30°C° 0 mm 3 mps 760 mmHg 38%
    23:00 +29°C° 0 mm 3 mps 760 mmHg 40%

    11 June, Thursday

    Time Temperature Precipitation Wind Pressure Humidity
    00:00 +28°C° 0 mm 3 mps 760 mmHg 43%
    01:00 +28°C° 0 mm 3 mps 760 mmHg 47%
    02:00 +27°C° 0 mm 3 mps 760 mmHg 51%
    03:00 +26°C° 0 mm 2 mps 760 mmHg 55%
    04:00 +26°C° 0 mm 2 mps 761 mmHg 56%
    05:00 +25°C° 0 mm 2 mps 761 mmHg 57%
    06:00 +25°C° 0 mm 2 mps 761 mmHg 57%
    07:00 +26°C° 0 mm 3 mps 761 mmHg 51%
    08:00 +28°C° 0 mm 3 mps 762 mmHg 45%
    09:00 +30°C° 0 mm 3 mps 762 mmHg 39%
    10:00 +31°C° 0 mm 3 mps 762 mmHg 34%
    11:00 +34°C° 0 mm 3 mps 761 mmHg 30%
    12:00 +36°C° 0 mm 3 mps 761 mmHg 25%
    13:00 +36°C° 0 mm 3 mps 761 mmHg 24%
    14:00 +37°C° 0 mm 3 mps 760 mmHg 23%
    15:00 +38°C° 0 mm 3 mps 760 mmHg 21%
    16:00 +37°C° 0 mm 2 mps 760 mmHg 24%
    17:00 +36°C° 0 mm 2 mps 759 mmHg 26%
    18:00 +36°C° 0 mm 2 mps 759 mmHg 29%
    19:00 +34°C° 0 mm 2 mps 759 mmHg 32%
    20:00 +32°C° 0 mm 1 mps 760 mmHg 35%
    21:00 +30°C° 0 mm 1 mps 760 mmHg 39%
    22:00 +29°C° 0 mm 1 mps 760 mmHg 43%
    23:00 +29°C° 0 mm 1 mps 761 mmHg 47%
    Show more